Wetterdaten: aktuell Montag, 03.08.2020 17:30
Datum Zeit Außentemp Luftfeuchte Luftdruck Regen Wind Windrichtung Windrichtung Sonnenschein ET UV Solar Windböen
03.08.2020 17:30 19,1 °C 94 % 1007,9 hPa 0,0 l/m² 1,6 km/h (1 Bft) W 270 ° 0 min 0,000 mm 0,0 UV-I 67 W/m² 8,0 km/h (2 Bft)
03.08.2020 17:15 19,6 °C 92 % 1007,9 hPa 0,0 l/m² 1,6 km/h (1 Bft) W-SW 247 ° 0 min 0,000 mm 1,4 UV-I 107 W/m² 6,4 km/h (2 Bft)
03.08.2020 17:00 20,6 °C 92 % 1007,6 hPa 0,0 l/m² 0,0 km/h (0 Bft) W-SW 247 ° 15 min 0,178 mm 2,3 UV-I 412 W/m² 4,8 km/h (1 Bft)
03.08.2020 16:45 20,6 °C 95 % 1007,6 hPa 0,0 l/m² 1,6 km/h (1 Bft) W 270 ° 15 min 0,000 mm 2,8 UV-I 760 W/m² 4,8 km/h (1 Bft)
03.08.2020 16:30 19,9 °C 98 % 1007,7 hPa 0,0 l/m² 1,6 km/h (1 Bft) S 180 ° 15 min 0,000 mm 2,5 UV-I 456 W/m² 6,4 km/h (2 Bft)
03.08.2020 16:15 20,2 °C 98 % 1007,8 hPa 0,0 l/m² 1,6 km/h (1 Bft) S 180 ° 0 min 0,000 mm 2,1 UV-I 299 W/m² 4,8 km/h (1 Bft)
03.08.2020 16:00 19,9 °C 98 % 1008,2 hPa 0,0 l/m² 1,6 km/h (1 Bft) SW 225 ° 0 min 0,152 mm 2,1 UV-I 290 W/m² 3,2 km/h (1 Bft)
03.08.2020 15:45 19,6 °C 98 % 1008,4 hPa 0,0 l/m² 1,6 km/h (1 Bft) S 180 ° 0 min 0,000 mm 2,3 UV-I 276 W/m² 4,8 km/h (1 Bft)
03.08.2020 15:30 19,7 °C 98 % 1008,4 hPa 0,0 l/m² 1,6 km/h (1 Bft) S-SO 157 ° 0 min 0,000 mm 2,3 UV-I 271 W/m² 4,8 km/h (1 Bft)
03.08.2020 15:15 19,3 °C 98 % 1008,4 hPa 0,0 l/m² 1,6 km/h (1 Bft) SO 135 ° 0 min 0,000 mm 2,3 UV-I 368 W/m² 4,8 km/h (1 Bft)
03.08.2020 15:00 19,3 °C 98 % 1008,3 hPa 0,0 l/m² 1,6 km/h (1 Bft) S-SO 157 ° 15 min 0,178 mm 2,5 UV-I 461 W/m² 4,8 km/h (1 Bft)
03.08.2020 14:45 19,3 °C 98 % 1008,4 hPa 0,0 l/m² 1,6 km/h (1 Bft) S-SW 202 ° 0 min 0,000 mm 2,3 UV-I 306 W/m² 8,0 km/h (2 Bft)
03.08.2020 14:30 19,3 °C 98 % 1008,6 hPa 0,0 l/m² 1,6 km/h (1 Bft) S 180 ° 0 min 0,000 mm 2,1 UV-I 211 W/m² 4,8 km/h (1 Bft)
03.08.2020 14:15 19,3 °C 98 % 1008,6 hPa 0,0 l/m² 0,0 km/h (0 Bft) S 180 ° 0 min 0,000 mm 2,5 UV-I 443 W/m² 3,2 km/h (1 Bft)
03.08.2020 14:00 19,1 °C 98 % 1008,8 hPa 0,0 l/m² 0,0 km/h (0 Bft) W 270 ° 0 min 0,127 mm 2,1 UV-I 306 W/m² 3,2 km/h (1 Bft)
03.08.2020 13:45 18,9 °C 98 % 1008,9 hPa 0,0 l/m² 1,6 km/h (1 Bft) SW 225 ° 0 min 0,000 mm 2,3 UV-I 366 W/m² 3,2 km/h (1 Bft)
03.08.2020 13:30 18,6 °C 98 % 1008,9 hPa 0,3 l/m² 1,6 km/h (1 Bft) S-SW 202 ° 0 min 0,000 mm 2,3 UV-I 366 W/m² 3,2 km/h (1 Bft)
03.08.2020 13:15 18,1 °C 98 % 1009,1 hPa 0,3 l/m² 3,2 km/h (1 Bft) S-SW 202 ° 0 min 0,000 mm 1,8 UV-I 209 W/m² 8,0 km/h (2 Bft)
03.08.2020 13:00 18,3 °C 98 % 1009,1 hPa 0,3 l/m² 0,0 km/h (0 Bft) W-SW 247 ° 0 min 0,076 mm 1,6 UV-I 199 W/m² 3,2 km/h (1 Bft)
03.08.2020 12:45 18,3 °C 98 % 1009,1 hPa 0,3 l/m² 0,0 km/h (0 Bft) W-SW 247 ° 0 min 0,000 mm 2,1 UV-I 229 W/m² 1,6 km/h (1 Bft)
03.08.2020 12:30 18,1 °C 98 % 1009,1 hPa 0,3 l/m² 0,0 km/h (0 Bft) W-SW 247 ° 0 min 0,000 mm 1,6 UV-I 187 W/m² 3,2 km/h (1 Bft)
03.08.2020 12:15 17,9 °C 98 % 1009,1 hPa 0,3 l/m² 0,0 km/h (0 Bft) W-SW 247 ° 0 min 0,000 mm 1,4 UV-I 148 W/m² 3,2 km/h (1 Bft)
03.08.2020 12:00 17,9 °C 98 % 1009,2 hPa 0,5 l/m² 1,6 km/h (1 Bft) SW 225 ° 0 min 0,051 mm 1,1 UV-I 143 W/m² 8,0 km/h (2 Bft)
03.08.2020 11:45 18,1 °C 98 % 1009,2 hPa 0,0 l/m² 1,6 km/h (1 Bft) S-SW 202 ° 0 min 0,000 mm 1,1 UV-I 139 W/m² 4,8 km/h (1 Bft)
03.08.2020 11:30 18,1 °C 98 % 1009,0 hPa 0,5 l/m² 1,6 km/h (1 Bft) S-SW 202 ° 0 min 0,000 mm 0,0 UV-I 107 W/m² 8,0 km/h (2 Bft)
03.08.2020 11:15 18,2 °C 98 % 1008,7 hPa 1,0 l/m² 1,6 km/h (1 Bft) S-SW 202 ° 0 min 0,000 mm 0,0 UV-I 97 W/m² 3,2 km/h (1 Bft)
03.08.2020 11:00 18,2 °C 98 % 1008,5 hPa 1,0 l/m² 1,6 km/h (1 Bft) S 180 ° 0 min 0,025 mm 0,0 UV-I 90 W/m² 4,8 km/h (1 Bft)
03.08.2020 10:45 18,2 °C 98 % 1008,6 hPa 1,0 l/m² 0,0 km/h (0 Bft) S 180 ° 0 min 0,000 mm 0,0 UV-I 69 W/m² 3,2 km/h (1 Bft)
03.08.2020 10:30 18,1 °C 98 % 1008,5 hPa 1,0 l/m² 0,0 km/h (0 Bft) S-SO 157 ° 0 min 0,000 mm 0,0 UV-I 81 W/m² 3,2 km/h (1 Bft)
03.08.2020 10:15 17,9 °C 98 % 1008,5 hPa 0,8 l/m² 1,6 km/h (1 Bft) S-SO 157 ° 0 min 0,000 mm 0,0 UV-I 53 W/m² 4,8 km/h (1 Bft)
03.08.2020 10:00 18,1 °C 98 % 1008,4 hPa 0,3 l/m² 1,6 km/h (1 Bft) S 180 ° 0 min 0,025 mm 0,0 UV-I 67 W/m² 3,2 km/h (1 Bft)
03.08.2020 09:45 18,3 °C 98 % 1008,3 hPa 0,5 l/m² 1,6 km/h (1 Bft) S-SO 157 ° 0 min 0,000 mm 0,0 UV-I 63 W/m² 3,2 km/h (1 Bft)
03.08.2020 09:30 18,2 °C 98 % 1008,2 hPa 0,0 l/m² 0,0 km/h (0 Bft) S-SO 157 ° 0 min 0,000 mm 0,0 UV-I 44 W/m² 1,6 km/h (1 Bft)
03.08.2020 09:15 18,2 °C 98 % 1008,2 hPa 0,0 l/m² 1,6 km/h (1 Bft) S-SO 157 ° 0 min 0,000 mm 0,0 UV-I 42 W/m² 3,2 km/h (1 Bft)
03.08.2020 09:00 18,3 °C 98 % 1008,2 hPa 0,0 l/m² 1,6 km/h (1 Bft) S-SO 157 ° 0 min 0,025 mm 0,0 UV-I 63 W/m² 4,8 km/h (1 Bft)
03.08.2020 08:45 18,1 °C 98 % 1008,2 hPa 0,8 l/m² 1,6 km/h (1 Bft) S-SO 157 ° 0 min 0,000 mm 0,0 UV-I 88 W/m² 4,8 km/h (1 Bft)
03.08.2020 08:30 17,9 °C 98 % 1008,2 hPa 2,3 l/m² 1,6 km/h (1 Bft) S 180 ° 0 min 0,000 mm 0,0 UV-I 65 W/m² 4,8 km/h (1 Bft)
03.08.2020 08:15 17,9 °C 98 % 1008,3 hPa 3,0 l/m² 1,6 km/h (1 Bft) S 180 ° 0 min 0,000 mm 0,0 UV-I 12 W/m² 4,8 km/h (1 Bft)
03.08.2020 08:00 17,9 °C 98 % 1008,3 hPa 4,1 l/m² 1,6 km/h (1 Bft) S 180 ° 0 min 0,000 mm 0,0 UV-I 0 W/m² 6,4 km/h (2 Bft)
03.08.2020 07:45 17,9 °C 98 % 1008,3 hPa 4,3 l/m² 1,6 km/h (1 Bft) S-SW 202 ° 0 min 0,000 mm 0,0 UV-I 0 W/m² 4,8 km/h (1 Bft)
03.08.2020 07:30 17,9 °C 98 % 1008,1 hPa 4,1 l/m² 0,0 km/h (0 Bft) S 180 ° 0 min 0,000 mm 0,0 UV-I 11 W/m² 1,6 km/h (1 Bft)
03.08.2020 07:15 17,9 °C 98 % 1008,3 hPa 1,3 l/m² 0,0 km/h (0 Bft) S 180 ° 0 min 0,000 mm 0,0 UV-I 0 W/m² 3,2 km/h (1 Bft)
03.08.2020 07:00 17,9 °C 98 % 1008,2 hPa 2,0 l/m² 0,0 km/h (0 Bft) S 180 ° 0 min 0,000 mm 0,0 UV-I 0 W/m² 1,6 km/h (1 Bft)
03.08.2020 06:45 17,9 °C 98 % 1008,4 hPa 0,8 l/m² 0,0 km/h (0 Bft) S 180 ° 0 min 0,000 mm 0,0 UV-I 0 W/m² 1,6 km/h (1 Bft)
03.08.2020 06:30 17,9 °C 98 % 1008,5 hPa 0,0 l/m² 0,0 km/h (0 Bft) S 180 ° 0 min 0,000 mm 0,0 UV-I 0 W/m² 1,6 km/h (1 Bft)
03.08.2020 06:15 18,1 °C 98 % 1008,6 hPa 0,0 l/m² 0,0 km/h (0 Bft) S-SW 202 ° 0 min 0,000 mm 0,0 UV-I 0 W/m² 3,2 km/h (1 Bft)
03.08.2020 06:00 18,1 °C 98 % 1008,7 hPa 0,3 l/m² 0,0 km/h (0 Bft) S-SW 202 ° 0 min 0,000 mm 0,0 UV-I 0 W/m² 3,2 km/h (1 Bft)
03.08.2020 05:45 17,9 °C 98 % 1009,0 hPa 0,0 l/m² 0,0 km/h (0 Bft) S-SO 157 ° 0 min 0,000 mm 0,0 UV-I 0 W/m² 1,6 km/h (1 Bft)
03.08.2020 05:30 17,9 °C 98 % 1009,1 hPa 0,3 l/m² 0,0 km/h (0 Bft) S-SW 202 ° 0 min 0,000 mm 0,0 UV-I 0 W/m² 3,2 km/h (1 Bft)
03.08.2020 05:15 18,1 °C 98 % 1009,2 hPa 0,0 l/m² 1,6 km/h (1 Bft) S-SW 202 ° 0 min 0,000 mm 0,0 UV-I 0 W/m² 4,8 km/h (1 Bft)
03.08.2020 05:00 18,1 °C 98 % 1009,2 hPa 0,0 l/m² 1,6 km/h (1 Bft) S 180 ° 0 min 0,000 mm 0,0 UV-I 0 W/m² 3,2 km/h (1 Bft)
03.08.2020 04:45 18,1 °C 98 % 1009,2 hPa 0,0 l/m² 1,6 km/h (1 Bft) O-NO 67 ° 0 min 0,000 mm 0,0 UV-I 0 W/m² 3,2 km/h (1 Bft)
03.08.2020 04:30 18,1 °C 98 % 1009,2 hPa 0,0 l/m² 0,0 km/h (0 Bft) O-NO 67 ° 0 min 0,000 mm 0,0 UV-I 0 W/m² 1,6 km/h (1 Bft)
03.08.2020 04:15 18,2 °C 98 % 1009,5 hPa 0,0 l/m² 0,0 km/h (0 Bft) O 90 ° 0 min 0,000 mm 0,0 UV-I 0 W/m² 1,6 km/h (1 Bft)
03.08.2020 04:00 18,2 °C 98 % 1009,6 hPa 0,0 l/m² 0,0 km/h (0 Bft) O 90 ° 0 min 0,000 mm 0,0 UV-I 0 W/m² 1,6 km/h (1 Bft)
03.08.2020 03:45 18,2 °C 98 % 1009,7 hPa 0,0 l/m² 0,0 km/h (0 Bft) S-SW 202 ° 0 min 0,000 mm 0,0 UV-I 0 W/m² 3,2 km/h (1 Bft)
03.08.2020 03:30 18,3 °C 98 % 1009,7 hPa 0,0 l/m² 0,0 km/h (0 Bft) S-SW 202 ° 0 min 0,000 mm 0,0 UV-I 0 W/m² 4,8 km/h (1 Bft)
03.08.2020 03:15 18,3 °C 98 % 1009,8 hPa 0,0 l/m² 1,6 km/h (1 Bft) S-SW 202 ° 0 min 0,000 mm 0,0 UV-I 0 W/m² 4,8 km/h (1 Bft)
03.08.2020 03:00 18,2 °C 98 % 1009,8 hPa 0,0 l/m² 4,8 km/h (1 Bft) S-SW 202 ° 0 min 0,000 mm 0,0 UV-I 0 W/m² 11,3 km/h (2 Bft)
03.08.2020 02:45 18,1 °C 98 % 1010,1 hPa 0,0 l/m² 6,4 km/h (2 Bft) S 180 ° 0 min 0,000 mm 0,0 UV-I 0 W/m² 12,9 km/h (3 Bft)
03.08.2020 02:30 17,9 °C 98 % 1010,1 hPa 0,0 l/m² 6,4 km/h (2 Bft) S 180 ° 0 min 0,000 mm 0,0 UV-I 0 W/m² 16,1 km/h (3 Bft)
03.08.2020 02:15 17,6 °C 98 % 1010,3 hPa 0,0 l/m² 4,8 km/h (1 Bft) S 180 ° 0 min 0,000 mm 0,0 UV-I 0 W/m² 12,9 km/h (3 Bft)
03.08.2020 02:00 17,5 °C 98 % 1010,6 hPa 0,0 l/m² 4,8 km/h (1 Bft) S 180 ° 0 min 0,000 mm 0,0 UV-I 0 W/m² 11,3 km/h (2 Bft)
03.08.2020 01:45 17,4 °C 98 % 1010,7 hPa 0,0 l/m² 4,8 km/h (1 Bft) S-SW 202 ° 0 min 0,000 mm 0,0 UV-I 0 W/m² 9,7 km/h (2 Bft)
03.08.2020 01:30 17,4 °C 98 % 1010,7 hPa 0,0 l/m² 3,2 km/h (1 Bft) S 180 ° 0 min 0,000 mm 0,0 UV-I 0 W/m² 8,0 km/h (2 Bft)
03.08.2020 01:15 17,6 °C 98 % 1010,6 hPa 0,0 l/m² 3,2 km/h (1 Bft) SO 135 ° 0 min 0,000 mm 0,0 UV-I 0 W/m² 9,7 km/h (2 Bft)
03.08.2020 01:00 17,9 °C 98 % 1010,7 hPa 0,0 l/m² 1,6 km/h (1 Bft) SW 225 ° 0 min 0,000 mm 0,0 UV-I 0 W/m² 4,8 km/h (1 Bft)
03.08.2020 00:45 17,9 °C 98 % 1010,7 hPa 0,0 l/m² 1,6 km/h (1 Bft) SW 225 ° 0 min 0,000 mm 0,0 UV-I 0 W/m² 4,8 km/h (1 Bft)
03.08.2020 00:30 17,8 °C 98 % 1010,6 hPa 0,0 l/m² 1,6 km/h (1 Bft) SW 225 ° 0 min 0,000 mm 0,0 UV-I 0 W/m² 4,8 km/h (1 Bft)
03.08.2020 00:15 17,9 °C 98 % 1010,7 hPa 0,0 l/m² 1,6 km/h (1 Bft) SW 225 ° 0 min 0,000 mm 0,0 UV-I 0 W/m² 4,8 km/h (1 Bft)
03.08.2020 00:00 17,9 °C 98 % 1010,9 hPa 0,0 l/m² 1,6 km/h (1 Bft) SW 225 ° 0 min 0,000 mm 0,0 UV-I 0 W/m² 4,8 km/h (1 Bft)
_ Min-Zeit 01:45 17:00 16:45 - 03:30 - - - - - - 04:00
Minimum _ 17,3 °C 92 % 1007,6 hPa - 0,0 km/h (0 Bft) - - - - - - 1,6 km/h (1 Bft)
_ Max-Zeit 17:00 00:00 00:00 07:45 02:30 - - 15:00 15:00 16:45 16:45 02:30
Maximum _ 20,8 °C 98 % 1010,9 hPa 4,3 l/m² 6,4 km/h
S (2 Bft)
- - 15 min 0,178 mm 2,8 UV-I 760 W/m² 16,1 km/h
S-SO (3 Bft)
Durchschnitt _ 18,4 °C 98 % 1009,0 hPa #31,2 l/m² 1,4 km/h (1 Bft) S - #1:00 h #0,837 mm 2,0 UV-I 204 W/m² 4,9 km/h (1 Bft)
Wetterstation Oberbergern - Herbert Schneider